Location: Härggis
(46.9540°N, 8.4897°E)
Time: 13:07:31
(UTC+00:00)

SL-16 R/B - Pass Details

Date: 02 October 2022
Orbit: 985 x 1007 km, 99.6° (Epoch: 26 November)

Event Time Altitude Azimuth Distance (km) Brightness Sun altitude
Exits shadow 23:03:08 11° 39° (NE) 2,727 5.2 -46.8°
Drops below altitude 10° 23:03:51 10° 32° (NNE) 2,774 5.3 -46.8°
Sets 23:08:43 0° 358° (N) 3,735 6.3 -46.9°
